Year,Month,Day,Hour,Minute,Value (Times are PST for windspeed in km/hr)
2018,07,11,00,00,0.00
2018,07,11,00,01,0.00
2018,07,11,00,02,0.00
2018,07,11,00,03,0.00
2018,07,11,00,04,0.00
2018,07,11,00,05,0.00
2018,07,11,00,06,0.00
2018,07,11,00,07,0.00
2018,07,11,00,08,0.00
2018,07,11,00,09,0.00
2018,07,11,00,10,0.00
2018,07,11,00,11,0.00
2018,07,11,00,12,0.00
2018,07,11,00,13,0.00
2018,07,11,00,14,0.00
2018,07,11,00,15,0.00
2018,07,11,00,16,0.00
2018,07,11,00,17,0.00
2018,07,11,00,18,0.00
2018,07,11,00,19,0.00
2018,07,11,00,20,0.00
2018,07,11,00,21,0.00
2018,07,11,00,22,0.00
2018,07,11,00,23,0.00
2018,07,11,00,24,0.00
2018,07,11,00,25,0.00
2018,07,11,00,26,0.00
2018,07,11,00,27,0.00
2018,07,11,00,28,0.00
2018,07,11,00,29,0.00
2018,07,11,00,30,0.00
2018,07,11,00,31,0.00
2018,07,11,00,32,0.00
2018,07,11,00,33,0.00
2018,07,11,00,34,0.00
2018,07,11,00,35,0.00
2018,07,11,00,36,0.00
2018,07,11,00,37,0.00
2018,07,11,00,38,0.00
2018,07,11,00,39,0.50
2018,07,11,00,40,0.10
2018,07,11,00,41,0.50
2018,07,11,00,42,1.90
2018,07,11,00,43,1.10
2018,07,11,00,44,0.70
2018,07,11,00,45,0.00
2018,07,11,00,46,0.00
2018,07,11,00,47,0.00
2018,07,11,00,48,0.00
2018,07,11,00,49,0.00
2018,07,11,00,50,0.00
2018,07,11,00,51,0.00
2018,07,11,00,52,0.00
2018,07,11,00,53,0.00
2018,07,11,00,54,0.00
2018,07,11,00,55,0.00
2018,07,11,00,56,0.00
2018,07,11,00,57,0.00
2018,07,11,00,58,0.00
2018,07,11,00,59,0.00
2018,07,11,01,00,0.00
2018,07,11,01,01,0.00
2018,07,11,01,02,0.00
2018,07,11,01,03,0.00
2018,07,11,01,04,0.00
2018,07,11,01,05,0.00
2018,07,11,01,06,0.00
2018,07,11,01,07,0.00
2018,07,11,01,08,0.00
2018,07,11,01,09,0.00
2018,07,11,01,10,0.00
2018,07,11,01,11,0.00
2018,07,11,01,12,0.00
2018,07,11,01,13,0.00
2018,07,11,01,14,0.00
2018,07,11,01,15,0.10
2018,07,11,01,16,0.00
2018,07,11,01,17,0.10
2018,07,11,01,18,0.00
2018,07,11,01,19,0.00
2018,07,11,01,20,0.00
2018,07,11,01,21,0.20
2018,07,11,01,22,0.00
2018,07,11,01,23,0.00
2018,07,11,01,24,0.00
2018,07,11,01,25,0.00
2018,07,11,01,26,0.00
2018,07,11,01,27,0.50
2018,07,11,01,28,0.00
2018,07,11,01,29,0.00
2018,07,11,01,30,0.00
2018,07,11,01,31,0.00
2018,07,11,01,32,0.00
2018,07,11,01,33,0.00
2018,07,11,01,34,0.00
2018,07,11,01,35,0.00
2018,07,11,01,36,0.00
2018,07,11,01,37,0.00
2018,07,11,01,38,0.00
2018,07,11,01,39,0.00
2018,07,11,01,40,0.00
2018,07,11,01,41,0.00
2018,07,11,01,42,0.00
2018,07,11,01,43,0.00
2018,07,11,01,44,0.00
2018,07,11,01,45,0.00
2018,07,11,01,46,0.00
2018,07,11,01,47,0.00
2018,07,11,01,48,0.00
2018,07,11,01,49,0.00
2018,07,11,01,50,0.00
2018,07,11,01,51,0.00
2018,07,11,01,52,0.00
2018,07,11,01,53,0.00
2018,07,11,01,54,0.00
2018,07,11,01,55,0.00
2018,07,11,01,56,0.00
2018,07,11,01,57,0.00
2018,07,11,01,58,0.00
2018,07,11,01,59,0.00
2018,07,11,02,00,0.00
2018,07,11,02,01,0.00
2018,07,11,02,02,0.00
2018,07,11,02,03,0.00
2018,07,11,02,04,0.00
2018,07,11,02,05,0.00
2018,07,11,02,06,0.00
2018,07,11,02,07,0.00
2018,07,11,02,08,0.00
2018,07,11,02,09,0.00
2018,07,11,02,10,0.00
2018,07,11,02,11,0.00
2018,07,11,02,12,0.00
2018,07,11,02,13,0.00
2018,07,11,02,14,0.00
2018,07,11,02,15,0.00
2018,07,11,02,16,0.00
2018,07,11,02,17,0.00
2018,07,11,02,18,0.00
2018,07,11,02,19,0.00
2018,07,11,02,20,0.00
2018,07,11,02,21,0.00
2018,07,11,02,22,0.00
2018,07,11,02,23,0.00
2018,07,11,02,24,0.00
2018,07,11,02,25,0.00
2018,07,11,02,26,0.00
2018,07,11,02,27,0.00
2018,07,11,02,28,0.00
2018,07,11,02,29,0.00
2018,07,11,02,30,0.00
2018,07,11,02,31,0.00
2018,07,11,02,32,0.00
2018,07,11,02,33,0.00
2018,07,11,02,34,0.00
2018,07,11,02,35,0.00
2018,07,11,02,36,0.00
2018,07,11,02,37,0.00
2018,07,11,02,38,0.00
2018,07,11,02,39,0.00
2018,07,11,02,40,0.00
2018,07,11,02,41,0.00
2018,07,11,02,42,0.00
2018,07,11,02,43,0.00
2018,07,11,02,44,0.00
2018,07,11,02,45,0.00
2018,07,11,02,46,0.00
2018,07,11,02,47,0.00
2018,07,11,02,48,0.00
2018,07,11,02,49,0.00
2018,07,11,02,50,0.00
2018,07,11,02,51,0.00
2018,07,11,02,52,0.00
2018,07,11,02,53,0.00
2018,07,11,02,54,0.00
2018,07,11,02,55,0.00
2018,07,11,02,56,0.00
2018,07,11,02,57,0.00
2018,07,11,02,58,0.00
2018,07,11,02,59,0.00
2018,07,11,03,00,0.00
2018,07,11,03,01,0.00
2018,07,11,03,02,0.00
2018,07,11,03,03,0.00
2018,07,11,03,04,0.00
2018,07,11,03,05,0.00
2018,07,11,03,06,0.00
2018,07,11,03,07,0.70
2018,07,11,03,08,0.50
2018,07,11,03,09,0.00
2018,07,11,03,10,0.00
2018,07,11,03,11,0.30
2018,07,11,03,12,0.00
2018,07,11,03,13,0.00
2018,07,11,03,14,0.10
2018,07,11,03,15,0.20
2018,07,11,03,16,0.00
2018,07,11,03,17,0.20
2018,07,11,03,18,0.00
2018,07,11,03,19,0.00
2018,07,11,03,20,0.00
2018,07,11,03,21,0.00
2018,07,11,03,22,0.00
2018,07,11,03,23,0.00
2018,07,11,03,24,0.00
2018,07,11,03,25,0.00
2018,07,11,03,26,0.00
2018,07,11,03,27,0.00
2018,07,11,03,28,0.00
2018,07,11,03,29,0.00
2018,07,11,03,30,0.00
2018,07,11,03,31,0.00
2018,07,11,03,32,1.00
2018,07,11,03,33,1.60
2018,07,11,03,34,0.10
2018,07,11,03,35,0.00
2018,07,11,03,36,0.00
2018,07,11,03,37,0.00
2018,07,11,03,38,0.00
2018,07,11,03,39,0.00
2018,07,11,03,40,0.00
2018,07,11,03,41,0.00
2018,07,11,03,42,1.40
2018,07,11,03,43,1.60
2018,07,11,03,44,0.40
2018,07,11,03,45,0.40
2018,07,11,03,46,4.20
2018,07,11,03,47,1.80
2018,07,11,03,48,0.20
2018,07,11,03,49,1.10
2018,07,11,03,50,2.00
2018,07,11,03,51,0.30
2018,07,11,03,52,0.00
2018,07,11,03,53,2.00
2018,07,11,03,54,0.90
2018,07,11,03,55,1.80
2018,07,11,03,56,1.00
2018,07,11,03,57,0.90
2018,07,11,03,58,0.60
2018,07,11,03,59,1.60
2018,07,11,04,00,0.00
2018,07,11,04,01,0.10
2018,07,11,04,02,1.40
2018,07,11,04,03,2.30
2018,07,11,04,04,0.70
2018,07,11,04,05,1.60
2018,07,11,04,06,3.20
2018,07,11,04,07,1.60
2018,07,11,04,08,1.50
2018,07,11,04,09,1.60
2018,07,11,04,10,1.80
2018,07,11,04,11,2.00
2018,07,11,04,12,1.80
2018,07,11,04,13,0.60
2018,07,11,04,14,0.10
2018,07,11,04,15,1.70
2018,07,11,04,16,2.50
2018,07,11,04,17,2.20
2018,07,11,04,18,2.40
2018,07,11,04,19,0.50
2018,07,11,04,20,1.80
2018,07,11,04,21,2.10
2018,07,11,04,22,2.50
2018,07,11,04,23,3.60
2018,07,11,04,24,2.10
2018,07,11,04,25,0.20
2018,07,11,04,26,0.20
2018,07,11,04,27,0.60
2018,07,11,04,28,1.90
2018,07,11,04,29,2.20
2018,07,11,04,30,0.90
2018,07,11,04,31,0.00
2018,07,11,04,32,0.10
2018,07,11,04,33,0.10
2018,07,11,04,34,0.50
2018,07,11,04,35,0.50
2018,07,11,04,36,0.60
2018,07,11,04,37,2.60
2018,07,11,04,38,3.40
2018,07,11,04,39,3.30
2018,07,11,04,40,1.60
2018,07,11,04,41,1.00
2018,07,11,04,42,0.10
2018,07,11,04,43,0.00
2018,07,11,04,44,2.80
2018,07,11,04,45,2.30
2018,07,11,04,46,2.40
2018,07,11,04,47,1.40
2018,07,11,04,48,1.40
2018,07,11,04,49,2.70
2018,07,11,04,50,0.50
2018,07,11,04,51,0.50
2018,07,11,04,52,2.50
2018,07,11,04,53,3.30
2018,07,11,04,54,1.80
2018,07,11,04,55,1.80
2018,07,11,04,56,1.50
2018,07,11,04,57,2.90
2018,07,11,04,58,2.00
2018,07,11,04,59,0.80
2018,07,11,05,00,1.60
2018,07,11,05,01,0.90
2018,07,11,05,02,0.70
2018,07,11,05,03,2.50
2018,07,11,05,04,2.20
2018,07,11,05,05,3.60
2018,07,11,05,06,1.00
2018,07,11,05,07,0.20
2018,07,11,05,08,0.10
2018,07,11,05,09,2.10
2018,07,11,05,10,1.00
2018,07,11,05,11,1.10
2018,07,11,05,12,0.30
2018,07,11,05,13,0.90
2018,07,11,05,14,1.30
2018,07,11,05,15,3.60
2018,07,11,05,16,2.70
2018,07,11,05,17,1.70
2018,07,11,05,18,2.70
2018,07,11,05,19,4.40
2018,07,11,05,20,4.70
2018,07,11,05,21,3.50
2018,07,11,05,22,5.00
2018,07,11,05,23,3.40
2018,07,11,05,24,2.40
2018,07,11,05,25,3.40
2018,07,11,05,26,4.00
2018,07,11,05,27,1.70
2018,07,11,05,28,0.10
2018,07,11,05,29,2.50
2018,07,11,05,30,3.90
2018,07,11,05,31,3.30
2018,07,11,05,32,3.20
2018,07,11,05,33,3.40
2018,07,11,05,34,1.00
2018,07,11,05,35,1.00
2018,07,11,05,36,1.30
2018,07,11,05,37,0.40
2018,07,11,05,38,3.50
2018,07,11,05,39,1.30
2018,07,11,05,40,2.30
2018,07,11,05,41,1.70
2018,07,11,05,42,1.60
2018,07,11,05,43,2.00
2018,07,11,05,44,2.90
2018,07,11,05,45,2.90
2018,07,11,05,46,2.80
2018,07,11,05,47,1.90
2018,07,11,05,48,4.60
2018,07,11,05,49,3.70
2018,07,11,05,50,2.70
2018,07,11,05,51,4.70
2018,07,11,05,52,4.30
2018,07,11,05,53,7.30
2018,07,11,05,54,8.30
2018,07,11,05,55,4.10
2018,07,11,05,56,3.90
2018,07,11,05,57,3.60
2018,07,11,05,58,4.60
2018,07,11,05,59,5.70
2018,07,11,06,00,3.70
2018,07,11,06,01,3.70
2018,07,11,06,02,4.80
2018,07,11,06,03,6.00
2018,07,11,06,04,4.70
2018,07,11,06,05,6.00
2018,07,11,06,06,7.30
2018,07,11,06,07,4.30
2018,07,11,06,08,7.20
2018,07,11,06,09,5.90
2018,07,11,06,10,3.90
2018,07,11,06,11,5.50
2018,07,11,06,12,5.40
2018,07,11,06,13,4.60
2018,07,11,06,14,4.80
2018,07,11,06,15,10.00
2018,07,11,06,16,7.30
2018,07,11,06,17,4.10
2018,07,11,06,18,4.90
2018,07,11,06,19,7.10
2018,07,11,06,20,5.70
2018,07,11,06,21,5.10
2018,07,11,06,22,5.60
2018,07,11,06,23,5.50
2018,07,11,06,24,3.40
2018,07,11,06,25,3.20
2018,07,11,06,26,4.70
2018,07,11,06,27,5.50
2018,07,11,06,28,4.10
2018,07,11,06,29,6.30
2018,07,11,06,30,5.90
2018,07,11,06,31,7.40
2018,07,11,06,32,2.60
2018,07,11,06,33,4.40
2018,07,11,06,34,6.50
2018,07,11,06,35,4.40
2018,07,11,06,36,6.80
2018,07,11,06,37,4.10
2018,07,11,06,38,4.20
2018,07,11,06,39,3.40
2018,07,11,06,40,6.30
2018,07,11,06,41,3.30
2018,07,11,06,42,6.70
2018,07,11,06,43,5.30
2018,07,11,06,44,3.20
2018,07,11,06,45,5.70
2018,07,11,06,46,3.20
2018,07,11,06,47,4.20
2018,07,11,06,48,3.20
2018,07,11,06,49,4.30
2018,07,11,06,50,4.10
2018,07,11,06,51,4.50
2018,07,11,06,52,1.00
2018,07,11,06,53,2.70
2018,07,11,06,54,4.70
2018,07,11,06,55,5.20
2018,07,11,06,56,8.70
2018,07,11,06,57,6.40
2018,07,11,06,58,8.90
2018,07,11,06,59,5.50
2018,07,11,07,00,5.10
2018,07,11,07,01,4.40
2018,07,11,07,02,9.30
2018,07,11,07,03,6.30
2018,07,11,07,04,5.60
2018,07,11,07,05,8.30
2018,07,11,07,06,3.30
2018,07,11,07,07,4.00
2018,07,11,07,08,4.70
2018,07,11,07,09,4.00
2018,07,11,07,10,4.20
2018,07,11,07,11,5.50
2018,07,11,07,12,5.70
2018,07,11,07,13,6.30
2018,07,11,07,14,5.90
2018,07,11,07,15,5.30
2018,07,11,07,16,2.90
2018,07,11,07,17,4.40
2018,07,11,07,18,3.00
2018,07,11,07,19,3.30
2018,07,11,07,20,2.20
2018,07,11,07,21,5.20
2018,07,11,07,22,3.50
2018,07,11,07,23,3.20
2018,07,11,07,24,2.60
2018,07,11,07,25,5.00
2018,07,11,07,26,3.10
2018,07,11,07,27,3.30
2018,07,11,07,28,4.00
2018,07,11,07,29,4.50
2018,07,11,07,30,3.70
2018,07,11,07,31,6.30
2018,07,11,07,32,6.30
2018,07,11,07,33,4.00
2018,07,11,07,34,4.80
2018,07,11,07,35,7.50
2018,07,11,07,36,5.20
2018,07,11,07,37,7.00
2018,07,11,07,38,5.10
2018,07,11,07,39,5.00
2018,07,11,07,40,7.50
2018,07,11,07,41,5.90
2018,07,11,07,42,3.30
2018,07,11,07,43,3.60
2018,07,11,07,44,3.80
2018,07,11,07,45,6.40
2018,07,11,07,46,4.70
2018,07,11,07,47,5.30
2018,07,11,07,48,3.30
2018,07,11,07,49,4.70
2018,07,11,07,50,5.80
2018,07,11,07,51,4.10
2018,07,11,07,52,4.70
2018,07,11,07,53,5.00
2018,07,11,07,54,4.40
2018,07,11,07,55,4.00
2018,07,11,07,56,6.10
2018,07,11,07,57,6.00
2018,07,11,07,58,4.30
2018,07,11,07,59,2.60
2018,07,11,08,00,4.90
2018,07,11,08,01,5.10
2018,07,11,08,02,5.50
2018,07,11,08,03,6.00
2018,07,11,08,04,3.60
2018,07,11,08,05,5.80
2018,07,11,08,06,6.00
2018,07,11,08,07,2.90
2018,07,11,08,08,5.30
2018,07,11,08,09,6.10
2018,07,11,08,10,3.70
2018,07,11,08,11,4.80
2018,07,11,08,12,9.60
2018,07,11,08,13,7.90
2018,07,11,08,14,4.50
2018,07,11,08,15,5.50
2018,07,11,08,16,5.30
2018,07,11,08,17,5.10
2018,07,11,08,18,6.00
2018,07,11,08,19,4.60
2018,07,11,08,20,6.40
2018,07,11,08,21,3.60
2018,07,11,08,22,4.60
2018,07,11,08,23,4.80
2018,07,11,08,24,8.30
2018,07,11,08,25,8.50
2018,07,11,08,26,3.40
2018,07,11,08,27,4.10
2018,07,11,08,28,4.30
2018,07,11,08,29,4.30
2018,07,11,08,30,8.30
2018,07,11,08,31,6.00
2018,07,11,08,32,3.20
2018,07,11,08,33,5.20
2018,07,11,08,34,3.50
2018,07,11,08,35,0.90
2018,07,11,08,36,7.90
2018,07,11,08,37,3.40
2018,07,11,08,38,3.90
2018,07,11,08,39,4.50
2018,07,11,08,40,4.40
2018,07,11,08,41,9.10
2018,07,11,08,42,4.60
2018,07,11,08,43,5.70
2018,07,11,08,44,3.20
2018,07,11,08,45,6.90
2018,07,11,08,46,4.50
2018,07,11,08,47,4.50
2018,07,11,08,48,5.70
2018,07,11,08,49,3.70
2018,07,11,08,50,3.40
2018,07,11,08,51,6.70
2018,07,11,08,52,5.70
2018,07,11,08,53,6.30
2018,07,11,08,54,3.80
2018,07,11,08,55,3.90
2018,07,11,08,56,3.80
2018,07,11,08,57,6.00
2018,07,11,08,58,4.90
2018,07,11,08,59,5.40
2018,07,11,09,00,9.40
2018,07,11,09,01,9.00
2018,07,11,09,02,4.80
2018,07,11,09,03,4.40
2018,07,11,09,04,4.90
2018,07,11,09,05,8.30
2018,07,11,09,06,5.40
2018,07,11,09,07,12.10
2018,07,11,09,08,5.00
2018,07,11,09,09,4.70
2018,07,11,09,10,10.40
2018,07,11,09,11,9.10
2018,07,11,09,12,10.00
2018,07,11,09,13,7.50
2018,07,11,09,14,7.00
2018,07,11,09,15,5.70
2018,07,11,09,16,8.30
2018,07,11,09,17,7.80
2018,07,11,09,18,9.20
2018,07,11,09,19,6.70
2018,07,11,09,20,3.80
2018,07,11,09,21,5.30
2018,07,11,09,22,5.90
2018,07,11,09,23,7.00
2018,07,11,09,24,4.60
2018,07,11,09,25,5.30
2018,07,11,09,26,5.20
2018,07,11,09,27,8.20
2018,07,11,09,28,9.10
2018,07,11,09,29,6.60
2018,07,11,09,30,4.60
2018,07,11,09,31,7.20
2018,07,11,09,32,6.50
2018,07,11,09,33,7.70
2018,07,11,09,34,7.40
2018,07,11,09,35,4.20
2018,07,11,09,36,9.10
2018,07,11,09,37,6.80
2018,07,11,09,38,5.90
2018,07,11,09,39,5.40
2018,07,11,09,40,6.40
2018,07,11,09,41,4.50
2018,07,11,09,42,3.80
2018,07,11,09,43,6.50
2018,07,11,09,44,2.90
2018,07,11,09,45,6.10
2018,07,11,09,46,5.10
2018,07,11,09,47,3.90
2018,07,11,09,48,5.80
2018,07,11,09,49,5.70
2018,07,11,09,50,4.50
2018,07,11,09,51,4.90
2018,07,11,09,52,4.00
2018,07,11,09,53,5.20
2018,07,11,09,54,4.50
2018,07,11,09,55,6.00
2018,07,11,09,56,10.90
2018,07,11,09,57,6.50
2018,07,11,09,58,5.20
2018,07,11,09,59,5.20
2018,07,11,10,00,4.60
2018,07,11,10,01,5.80
2018,07,11,10,02,5.20
2018,07,11,10,03,6.10
2018,07,11,10,04,7.00
2018,07,11,10,05,5.80
2018,07,11,10,06,7.60
2018,07,11,10,07,5.80
2018,07,11,10,08,5.50
2018,07,11,10,09,7.00
2018,07,11,10,10,9.10
2018,07,11,10,11,7.80
2018,07,11,10,12,5.10
2018,07,11,10,13,4.50
2018,07,11,10,14,7.20
2018,07,11,10,15,5.30
2018,07,11,10,16,3.80
2018,07,11,10,17,5.40
2018,07,11,10,18,6.40
2018,07,11,10,19,7.90
2018,07,11,10,20,7.20
2018,07,11,10,21,10.10
2018,07,11,10,22,11.10
2018,07,11,10,23,8.60
2018,07,11,10,24,9.00
2018,07,11,10,25,8.20
2018,07,11,10,26,5.60
2018,07,11,10,27,8.30
2018,07,11,10,28,8.60
2018,07,11,10,29,7.70
2018,07,11,10,30,8.90
2018,07,11,10,31,7.40
2018,07,11,10,32,8.70
2018,07,11,10,33,9.90
2018,07,11,10,34,9.10
2018,07,11,10,35,9.50
2018,07,11,10,36,9.70
2018,07,11,10,37,11.90
2018,07,11,10,38,12.00
2018,07,11,10,39,10.60
2018,07,11,10,40,7.00
2018,07,11,10,41,11.20
2018,07,11,10,42,5.20
2018,07,11,10,43,6.80
2018,07,11,10,44,5.30
2018,07,11,10,45,4.40
2018,07,11,10,46,6.00
2018,07,11,10,47,8.60
2018,07,11,10,48,7.20
2018,07,11,10,49,4.90
2018,07,11,10,50,4.70
2018,07,11,10,51,4.20
2018,07,11,10,52,6.90
2018,07,11,10,53,8.00
2018,07,11,10,54,7.50
2018,07,11,10,55,4.70
2018,07,11,10,56,4.70
2018,07,11,10,57,8.50
2018,07,11,10,58,5.40
2018,07,11,10,59,9.10
2018,07,11,11,00,6.70
2018,07,11,11,01,11.00
2018,07,11,11,02,8.20
2018,07,11,11,03,7.00
2018,07,11,11,04,5.70
2018,07,11,11,05,7.30
2018,07,11,11,06,9.10
2018,07,11,11,07,5.70
2018,07,11,11,08,3.70
2018,07,11,11,09,6.50
2018,07,11,11,10,6.00
2018,07,11,11,11,7.30
2018,07,11,11,12,6.00
2018,07,11,11,13,4.30
2018,07,11,11,14,4.10
2018,07,11,11,15,3.70
2018,07,11,11,16,4.80
2018,07,11,11,17,3.70
2018,07,11,11,18,8.20
2018,07,11,11,19,5.60
2018,07,11,11,20,6.20
2018,07,11,11,21,6.10
2018,07,11,11,22,7.30
2018,07,11,11,23,6.70
2018,07,11,11,24,7.00
2018,07,11,11,25,6.00
2018,07,11,11,26,3.60
2018,07,11,11,27,7.80
2018,07,11,11,28,13.20
2018,07,11,11,29,6.90
2018,07,11,11,30,4.10
2018,07,11,11,31,6.20
2018,07,11,11,32,8.10
2018,07,11,11,33,5.30
2018,07,11,11,34,8.20
2018,07,11,11,35,7.10
2018,07,11,11,36,7.80
2018,07,11,11,37,6.40
2018,07,11,11,38,7.00
2018,07,11,11,39,6.00
2018,07,11,11,40,6.00
2018,07,11,11,41,8.20
2018,07,11,11,42,6.90
2018,07,11,11,43,6.40
2018,07,11,11,44,6.70
2018,07,11,11,45,6.60
2018,07,11,11,46,7.40
2018,07,11,11,47,11.80
2018,07,11,11,48,7.80
2018,07,11,11,49,10.90
2018,07,11,11,50,11.50
2018,07,11,11,51,7.50
2018,07,11,11,52,9.10
2018,07,11,11,53,11.40
2018,07,11,11,54,8.50
2018,07,11,11,55,9.20
2018,07,11,11,56,11.30
2018,07,11,11,57,9.30
2018,07,11,11,58,16.00
2018,07,11,11,59,6.30
2018,07,11,12,00,6.60
2018,07,11,12,01,10.80
2018,07,11,12,02,14.50
2018,07,11,12,03,8.60
2018,07,11,12,04,5.70
2018,07,11,12,05,8.00
2018,07,11,12,06,4.50
2018,07,11,12,07,9.00
2018,07,11,12,08,4.90
2018,07,11,12,09,5.50
2018,07,11,12,10,10.20
2018,07,11,12,11,14.20
2018,07,11,12,12,6.00
2018,07,11,12,13,8.70
2018,07,11,12,14,6.60
2018,07,11,12,15,10.20
2018,07,11,12,16,7.80
2018,07,11,12,17,8.00
2018,07,11,12,18,9.80
2018,07,11,12,19,8.60
2018,07,11,12,20,5.40
2018,07,11,12,21,5.70
2018,07,11,12,22,6.40
2018,07,11,12,23,7.90
2018,07,11,12,24,7.40
2018,07,11,12,25,6.40
2018,07,11,12,26,7.60
2018,07,11,12,27,7.80
2018,07,11,12,28,7.30
2018,07,11,12,29,6.60
2018,07,11,12,30,11.20
2018,07,11,12,31,7.30
2018,07,11,12,32,9.70
2018,07,11,12,33,3.80
2018,07,11,12,34,5.80
2018,07,11,12,35,12.90
2018,07,11,12,36,7.50
2018,07,11,12,37,11.10
2018,07,11,12,38,12.90
2018,07,11,12,39,7.80
2018,07,11,12,40,7.70
2018,07,11,12,41,13.50
2018,07,11,12,42,9.30
2018,07,11,12,43,11.40
2018,07,11,12,44,17.30
2018,07,11,12,45,10.90
2018,07,11,12,46,11.60
2018,07,11,12,47,10.20
2018,07,11,12,48,7.10
2018,07,11,12,49,8.00
2018,07,11,12,50,8.00
2018,07,11,12,51,8.80
2018,07,11,12,52,7.50
2018,07,11,12,53,13.70
2018,07,11,12,54,9.10
2018,07,11,12,55,8.70
2018,07,11,12,56,7.90
2018,07,11,12,57,6.70
2018,07,11,12,58,8.80
2018,07,11,12,59,6.00
2018,07,11,13,00,10.20
2018,07,11,13,01,8.50
2018,07,11,13,02,10.20
2018,07,11,13,03,11.70
2018,07,11,13,04,8.80
2018,07,11,13,05,9.40
2018,07,11,13,06,6.80
2018,07,11,13,07,9.30
2018,07,11,13,08,8.60
2018,07,11,13,09,6.20
2018,07,11,13,10,11.10
2018,07,11,13,11,10.30
2018,07,11,13,12,9.50
2018,07,11,13,13,9.30
2018,07,11,13,14,10.50
2018,07,11,13,15,9.60
2018,07,11,13,16,13.10
2018,07,11,13,17,15.30
2018,07,11,13,18,10.20
2018,07,11,13,19,15.10
2018,07,11,13,20,7.50
2018,07,11,13,21,10.40
2018,07,11,13,22,5.20
2018,07,11,13,23,9.10
2018,07,11,13,24,8.50
2018,07,11,13,25,9.00
2018,07,11,13,26,7.50
2018,07,11,13,27,7.70
2018,07,11,13,28,6.30
2018,07,11,13,29,6.50
2018,07,11,13,30,5.20
2018,07,11,13,31,10.10
2018,07,11,13,32,7.60
2018,07,11,13,33,7.50
2018,07,11,13,34,7.80
2018,07,11,13,35,6.00
2018,07,11,13,36,6.00
2018,07,11,13,37,8.00
2018,07,11,13,38,6.30
2018,07,11,13,39,8.30
2018,07,11,13,40,8.80
2018,07,11,13,41,8.90
2018,07,11,13,42,5.40
2018,07,11,13,43,7.90
2018,07,11,13,44,9.00
2018,07,11,13,45,8.80
2018,07,11,13,46,9.10
2018,07,11,13,47,13.70
2018,07,11,13,48,9.50
2018,07,11,13,49,8.70
2018,07,11,13,50,6.40
2018,07,11,13,51,6.70
2018,07,11,13,52,6.70
2018,07,11,13,53,4.80
2018,07,11,13,54,5.80
2018,07,11,13,55,8.00
2018,07,11,13,56,10.50
2018,07,11,13,57,7.20
2018,07,11,13,58,7.60
2018,07,11,13,59,9.20
2018,07,11,14,00,7.60
2018,07,11,14,01,7.60
2018,07,11,14,02,8.70
2018,07,11,14,03,6.60
2018,07,11,14,04,5.40
2018,07,11,14,05,5.90
2018,07,11,14,06,8.40
2018,07,11,14,07,7.30
2018,07,11,14,08,5.60
2018,07,11,14,09,5.90
2018,07,11,14,10,7.50
2018,07,11,14,11,8.40
2018,07,11,14,12,6.30
2018,07,11,14,13,3.40
2018,07,11,14,14,7.00
2018,07,11,14,15,7.90
2018,07,11,14,16,7.10
2018,07,11,14,17,2.80
2018,07,11,14,18,3.00
2018,07,11,14,19,3.70
2018,07,11,14,20,3.30
2018,07,11,14,21,6.60
2018,07,11,14,22,4.00
2018,07,11,14,23,6.20
2018,07,11,14,24,11.10
2018,07,11,14,25,6.30
2018,07,11,14,26,9.80
2018,07,11,14,27,8.20
2018,07,11,14,28,3.30
2018,07,11,14,29,5.70
2018,07,11,14,30,5.20
2018,07,11,14,31,4.80
2018,07,11,14,32,6.40
2018,07,11,14,33,2.00
2018,07,11,14,34,3.00
2018,07,11,14,35,8.50
2018,07,11,14,36,6.90
2018,07,11,14,37,4.60
2018,07,11,14,38,9.10
2018,07,11,14,39,6.90
2018,07,11,14,40,8.30
2018,07,11,14,41,7.00
2018,07,11,14,42,5.60
2018,07,11,14,43,5.30
2018,07,11,14,44,7.10
2018,07,11,14,45,7.00
2018,07,11,14,46,4.10
2018,07,11,14,47,6.60
2018,07,11,14,48,6.70
2018,07,11,14,49,6.90
2018,07,11,14,50,6.40
2018,07,11,14,51,6.10
2018,07,11,14,52,4.20
2018,07,11,14,53,4.90
2018,07,11,14,54,4.90
2018,07,11,14,55,7.00
2018,07,11,14,56,4.40
2018,07,11,14,57,8.60
2018,07,11,14,58,6.60
2018,07,11,14,59,5.50
2018,07,11,15,00,9.50
2018,07,11,15,01,6.40
2018,07,11,15,02,3.70
2018,07,11,15,03,3.20
2018,07,11,15,04,7.50
2018,07,11,15,05,8.40
2018,07,11,15,06,5.50
2018,07,11,15,07,9.10
2018,07,11,15,08,8.10
2018,07,11,15,09,7.00
2018,07,11,15,10,8.70
2018,07,11,15,11,5.90
2018,07,11,15,12,5.00
2018,07,11,15,13,13.00
2018,07,11,15,14,7.60
2018,07,11,15,15,9.00
2018,07,11,15,16,5.80
2018,07,11,15,17,7.30
2018,07,11,15,18,4.80
2018,07,11,15,19,5.80
2018,07,11,15,20,6.40
2018,07,11,15,21,4.20
2018,07,11,15,22,6.00
2018,07,11,15,23,3.60
2018,07,11,15,24,3.70
2018,07,11,15,25,7.50
2018,07,11,15,26,6.00
2018,07,11,15,27,9.20
2018,07,11,15,28,8.90
2018,07,11,15,29,9.00
2018,07,11,15,30,6.50
2018,07,11,15,31,4.00
2018,07,11,15,32,5.20
2018,07,11,15,33,4.50
2018,07,11,15,34,5.60
2018,07,11,15,35,12.70
2018,07,11,15,36,11.00
2018,07,11,15,37,4.30
2018,07,11,15,38,5.10
2018,07,11,15,39,6.70
2018,07,11,15,40,11.10
2018,07,11,15,41,6.40
2018,07,11,15,42,11.40
2018,07,11,15,43,11.30
2018,07,11,15,44,4.40
2018,07,11,15,45,3.90
2018,07,11,15,46,5.10
2018,07,11,15,47,6.40
2018,07,11,15,48,4.00
2018,07,11,15,49,5.20
2018,07,11,15,50,7.70
2018,07,11,15,51,7.80
2018,07,11,15,52,6.10
2018,07,11,15,53,4.90
2018,07,11,15,54,5.70
2018,07,11,15,55,7.50
2018,07,11,15,56,4.90
2018,07,11,15,57,8.10
2018,07,11,15,58,5.20
2018,07,11,15,59,3.00
2018,07,11,16,00,4.90
2018,07,11,16,01,6.60
2018,07,11,16,02,6.80
2018,07,11,16,03,7.80
2018,07,11,16,04,4.50
2018,07,11,16,05,8.60
2018,07,11,16,06,7.90
2018,07,11,16,07,5.20
2018,07,11,16,08,9.10
2018,07,11,16,09,5.60
2018,07,11,16,10,4.10
2018,07,11,16,11,7.10
2018,07,11,16,12,4.90
2018,07,11,16,13,6.40
2018,07,11,16,14,6.10
2018,07,11,16,15,5.60
2018,07,11,16,16,5.70
2018,07,11,16,17,5.50
2018,07,11,16,18,5.50
2018,07,11,16,19,4.30
2018,07,11,16,20,6.00
2018,07,11,16,21,8.90
2018,07,11,16,22,9.20
2018,07,11,16,23,7.00
2018,07,11,16,24,5.70
2018,07,11,16,25,5.40
2018,07,11,16,26,5.20
2018,07,11,16,27,12.40
2018,07,11,16,28,6.90
2018,07,11,16,29,7.80
2018,07,11,16,30,4.40
2018,07,11,16,31,6.40
2018,07,11,16,32,8.50
2018,07,11,16,33,3.80
2018,07,11,16,34,4.70
2018,07,11,16,35,4.50
2018,07,11,16,36,6.60
2018,07,11,16,37,4.80
2018,07,11,16,38,4.60
2018,07,11,16,39,2.60
2018,07,11,16,40,11.90
2018,07,11,16,41,6.90
2018,07,11,16,42,7.00
2018,07,11,16,43,5.30
2018,07,11,16,44,3.60
2018,07,11,16,45,5.70
2018,07,11,16,46,5.00
2018,07,11,16,47,1.40
2018,07,11,16,48,3.70
2018,07,11,16,49,3.60
2018,07,11,16,50,4.50
2018,07,11,16,51,3.60
2018,07,11,16,52,3.80
2018,07,11,16,53,5.10
2018,07,11,16,54,2.20
2018,07,11,16,55,1.70
2018,07,11,16,56,2.40
2018,07,11,16,57,1.60
2018,07,11,16,58,3.70
2018,07,11,16,59,4.00
2018,07,11,17,00,1.90
2018,07,11,17,01,5.80
2018,07,11,17,02,10.10
2018,07,11,17,03,7.60
2018,07,11,17,04,5.30
2018,07,11,17,05,3.40
2018,07,11,17,06,5.90
2018,07,11,17,07,4.40
2018,07,11,17,08,4.60
2018,07,11,17,09,3.30
2018,07,11,17,10,2.50
2018,07,11,17,11,4.00
2018,07,11,17,12,3.30
2018,07,11,17,13,6.10
2018,07,11,17,14,5.20
2018,07,11,17,15,4.80
2018,07,11,17,16,7.20
2018,07,11,17,17,6.30
2018,07,11,17,18,3.00
2018,07,11,17,19,6.00
2018,07,11,17,20,5.60
2018,07,11,17,21,4.50
2018,07,11,17,22,3.20
2018,07,11,17,23,4.50
2018,07,11,17,24,7.70
2018,07,11,17,25,5.90
2018,07,11,17,26,3.80
2018,07,11,17,27,4.20
2018,07,11,17,28,6.00
2018,07,11,17,29,4.50
2018,07,11,17,30,3.40
2018,07,11,17,31,4.10
2018,07,11,17,32,3.40
2018,07,11,17,33,6.20
2018,07,11,17,34,6.80
2018,07,11,17,35,8.30
2018,07,11,17,36,4.80
2018,07,11,17,37,4.10
2018,07,11,17,38,5.90
2018,07,11,17,39,6.30
2018,07,11,17,40,5.40
2018,07,11,17,41,5.80
2018,07,11,17,42,4.30
2018,07,11,17,43,3.20
2018,07,11,17,44,2.20
2018,07,11,17,45,4.10
2018,07,11,17,46,5.30
2018,07,11,17,47,2.30
2018,07,11,17,48,7.60
2018,07,11,17,49,5.20
2018,07,11,17,50,7.00
2018,07,11,17,51,8.80
2018,07,11,17,52,6.00
2018,07,11,17,53,6.40
2018,07,11,17,54,7.30
2018,07,11,17,55,4.20
2018,07,11,17,56,6.40
2018,07,11,17,57,5.40
2018,07,11,17,58,5.70
2018,07,11,17,59,4.90
2018,07,11,18,00,3.90
2018,07,11,18,01,6.90
2018,07,11,18,02,3.60
2018,07,11,18,03,3.40